Date String (YYYY-MM-DD hh:mm:ss) UTC,Instrument flags,Ambient pressure (hPa),Sample flow (lpm),Bypass flow (lpm),Sample temperature (°C),Ambient temperature (°C),ASC tube jacket temperature (°C),LED temperature (°C),Box temperature (°C),Sample RH (%),Span deviation,Mass concentration (μg/m³),Mass concentration (μg/m³),Mass concentration (μg/m³)
DateTimeUTC,F1_M11,P_M11,Q1_M11,Q2_M11,T1_M11,T2_M11,T3_M11,T4_M11,T5_M11,U1_M11,ZSPAN_M11,X0_M11,X2_M11,X1_M11
2022-06-22 12:00:00,,0833.7,5.00,0.00,30.3,29.2,00.0,39.1,32.1,12.5,0000.0,0008.53,0003.69,0002.57
2022-06-22 12:01:00,,0833.8,5.00,0.00,30.3,29.2,00.0,39.1,32.1,12.5,0000.0,0008.66,0003.69,0002.57
2022-06-22 12:02:00,,0833.8,5.00,0.00,30.3,29.2,00.0,39.1,32.1,12.5,0000.0,0008.76,0003.76,0002.57
2022-06-22 12:03:00,,0833.8,5.01,0.00,30.3,29.2,00.0,39.1,32.1,12.5,0000.0,0008.80,0003.79,0002.57
2022-06-22 12:04:00,,0833.8,5.00,0.00,30.3,29.2,00.0,39.1,32.1,12.6,0000.0,0008.34,0003.74,0002.57
2022-06-22 12:05:00,,0833.8,4.99,0.00,30.3,29.2,00.0,39.1,32.1,12.6,0000.0,0007.78,0003.72,0002.58
2022-06-22 12:06:00,,0833.8,5.00,0.00,30.3,29.2,00.0,39.1,32.1,12.6,0000.0,0007.85,0003.72,0002.60
2022-06-22 12:07:00,,0833.7,5.00,0.00,30.3,29.2,00.0,39.1,32.1,12.7,0000.0,0007.88,0003.72,0002.60
2022-06-22 12:08:00,,0833.8,5.01,0.00,30.3,29.2,00.0,39.1,32.1,12.7,0000.0,0007.88,0003.73,0002.60
2022-06-22 12:09:00,,0833.7,5.00,0.00,30.3,29.2,00.0,39.1,32.1,12.7,0000.0,0007.98,0003.75,0002.58
2022-06-22 12:10:00,,0833.7,5.00,0.00,30.3,29.2,00.0,39.1,32.1,12.8,0000.0,0008.23,0003.78,0002.58
2022-06-22 12:11:00,,0833.7,4.99,0.00,30.3,29.2,00.0,39.1,32.1,12.9,0000.0,0008.29,0003.77,0002.57
2022-06-22 12:12:00,,0833.8,5.00,0.00,30.3,29.2,00.0,39.1,32.1,12.9,0000.0,0008.16,0003.73,0002.57
2022-06-22 12:13:00,,0833.8,5.00,0.00,30.3,29.2,00.0,39.1,32.1,13.0,0000.0,0007.93,0003.64,0002.58
2022-06-22 12:14:00,,0833.8,4.99,0.00,30.3,29.2,00.0,39.1,32.1,13.0,0000.0,0008.15,0003.62,0002.58
2022-06-22 12:15:00,,0833.9,5.01,0.00,30.3,29.2,00.0,39.2,32.1,13.1,0000.0,0008.24,0003.65,0002.59
2022-06-22 12:16:00,,0833.9,5.00,0.00,30.3,29.2,00.0,39.2,32.1,13.1,0000.0,0008.28,0003.68,0002.60
2022-06-22 12:17:00,,0833.9,4.99,0.00,30.3,29.2,00.0,39.2,32.1,13.2,0000.0,0008.43,0003.71,0002.60
2022-06-22 12:18:00,,0833.9,5.00,0.00,30.3,29.2,00.0,39.2,32.1,13.2,0000.0,0008.95,0003.69,0002.62
2022-06-22 12:19:00,,0833.9,5.00,0.00,30.3,29.2,00.0,39.2,32.1,13.2,0000.0,0008.93,0003.67,0002.61
2022-06-22 12:20:00,,0833.9,5.00,0.00,30.3,29.2,00.0,39.2,32.1,13.3,0000.0,0008.84,0003.66,0002.63
2022-06-22 12:21:00,,0833.9,5.00,0.00,30.3,29.2,00.0,39.2,32.1,13.3,0000.0,0008.78,0003.67,0002.65
2022-06-22 12:22:00,,0833.9,5.00,0.00,30.3,29.2,00.0,39.2,32.1,13.4,0000.0,0008.67,0003.68,0002.66
2022-06-22 12:23:00,,0833.9,4.99,0.00,30.3,29.2,00.0,39.2,32.1,13.4,0000.0,0008.68,0003.67,0002.66
2022-06-22 12:24:00,,0833.9,5.00,0.00,30.3,29.2,00.0,39.2,32.1,13.5,0000.0,0008.61,0003.71,0002.65
2022-06-22 12:25:00,,0833.9,5.01,0.00,30.3,29.2,00.0,39.2,32.1,13.4,0000.0,0008.33,0003.73,0002.65
2022-06-22 12:26:00,,0833.9,5.00,0.00,30.3,29.2,00.0,39.2,32.1,13.5,0000.0,0008.26,0003.72,0002.64
2022-06-22 12:27:00,,0833.9,4.99,0.00,30.3,29.2,00.0,39.2,32.1,13.4,0000.0,0008.60,0003.71,0002.63
2022-06-22 12:28:00,,0833.9,5.01,0.00,30.3,29.3,00.0,39.2,32.1,13.5,0000.0,0008.65,0003.70,0002.63
2022-06-22 12:29:00,,0833.9,5.01,0.00,30.3,29.3,00.0,39.2,32.1,13.5,0000.0,0008.42,0003.71,0002.63
2022-06-22 12:30:00,,0833.9,5.00,0.00,30.3,29.3,00.0,39.2,32.1,13.5,0000.0,0008.57,0003.71,0002.63
2022-06-22 12:31:00,,0833.9,4.99,0.00,30.3,29.3,00.0,39.2,32.1,13.6,0000.0,0008.67,0003.74,0002.64
2022-06-22 12:32:00,,0833.9,5.01,0.00,30.3,29.3,00.0,39.2,32.1,13.7,0000.0,0008.51,0003.70,0002.63
2022-06-22 12:33:00,,0833.9,4.99,0.00,30.4,29.3,00.0,39.2,32.1,13.7,0000.0,0008.60,0003.69,0002.63
2022-06-22 12:34:00,,0833.9,4.99,0.00,30.4,29.3,00.0,39.2,32.2,13.7,0000.0,0008.76,0003.73,0002.64
2022-06-22 12:35:00,,0833.9,5.00,0.00,30.4,29.3,00.0,39.2,32.2,13.7,0000.0,0008.75,0003.72,0002.64
2022-06-22 12:36:00,,0834.0,5.01,0.00,30.4,29.3,00.0,39.2,32.2,13.8,0000.0,0008.79,0003.69,0002.64
2022-06-22 12:37:00,,0834.0,5.00,0.00,30.4,29.3,00.0,39.2,32.2,13.7,0000.0,0008.95,0003.68,0002.64
2022-06-22 12:38:00,,0834.0,5.00,0.00,30.4,29.3,00.0,39.2,32.2,13.8,0000.0,0008.69,0003.69,0002.66
2022-06-22 12:39:00,,0834.0,5.01,0.00,30.4,29.3,00.0,39.2,32.2,13.9,0000.0,0008.39,0003.68,0002.66
2022-06-22 12:40:00,,0834.0,5.01,0.00,30.4,29.3,00.0,39.2,32.2,13.9,0000.0,0007.99,0003.66,0002.66
2022-06-22 12:41:00,,0834.0,4.99,0.00,30.4,29.4,00.0,39.2,32.2,14.0,0000.0,0007.70,0003.63,0002.67
2022-06-22 12:42:00,,0834.0,5.01,0.00,30.4,29.4,00.0,39.2,32.2,14.1,0000.0,0007.66,0003.62,0002.65
2022-06-22 12:43:00,,0834.0,5.00,0.00,30.4,29.4,00.0,39.2,32.2,14.1,0000.0,0007.66,0003.60,0002.64
2022-06-22 12:44:00,,0834.1,5.00,0.00,30.4,29.4,00.0,39.2,32.2,14.1,0000.0,0007.56,0003.57,0002.62
2022-06-22 12:45:00,,0834.1,5.01,0.00,30.4,29.4,00.0,39.3,32.2,14.2,0000.0,0007.48,0003.57,0002.60
2022-06-22 12:46:00,,0834.1,5.00,0.00,30.4,29.4,00.0,39.3,32.2,14.2,0000.0,0007.56,0003.58,0002.61
2022-06-22 12:47:00,,0834.1,5.00,0.00,30.4,29.4,00.0,39.3,32.2,14.2,0000.0,0007.54,0003.60,0002.61
2022-06-22 12:48:00,,0834.1,5.00,0.00,30.4,29.4,00.0,39.3,32.2,14.3,0000.0,0007.75,0003.66,0002.59
2022-06-22 12:49:00,,0834.0,4.98,0.00,30.5,29.4,00.0,39.3,32.2,14.4,0000.0,0007.78,0003.65,0002.57
2022-06-22 12:50:00,,0834.1,5.00,0.00,30.5,29.4,00.0,39.3,32.2,14.4,0000.0,0007.65,0003.63,0002.57
2022-06-22 12:51:00,,0834.1,5.00,0.00,30.5,29.4,00.0,39.3,32.3,14.4,0000.0,0007.61,0003.61,0002.55
2022-06-22 12:52:00,,0834.1,4.99,0.00,30.5,29.5,00.0,39.3,32.3,14.5,0000.0,0007.73,0003.64,0002.54
2022-06-22 12:53:00,,0834.1,5.01,0.00,30.5,29.5,00.0,39.3,32.3,14.5,0000.0,0007.71,0003.62,0002.53
2022-06-22 12:54:00,,0834.1,5.00,0.00,30.5,29.5,00.0,39.3,32.3,14.5,0000.0,0007.75,0003.62,0002.53
2022-06-22 12:55:00,,0834.0,5.00,0.00,30.5,29.5,00.0,39.3,32.3,14.5,0000.0,0007.88,0003.62,0002.52
2022-06-22 12:56:00,,0834.0,5.01,0.00,30.5,29.5,00.0,39.3,32.3,14.5,0000.0,0007.96,0003.61,0002.52
2022-06-22 12:57:00,,0834.0,5.01,0.00,30.5,29.5,00.0,39.3,32.3,14.6,0000.0,0007.90,0003.59,0002.52
2022-06-22 12:58:00,,0834.0,5.00,0.00,30.5,29.5,00.0,39.3,32.3,14.6,0000.0,0007.86,0003.59,0002.51
2022-06-22 12:59:00,,0834.1,4.99,0.00,30.5,29.5,00.0,39.3,32.3,14.6,0000.0,0007.66,0003.58,0002.49
